SCP
0 0 0 0 0 0 0 0 0 0 0 1 1 2 3 5 6 7 7 7 8 8 8 7 7 8 8 7 7 7 8 9 11 11 9 6 5 4 3 3 3 3 3 4
0 0 0 0 0 0 0 0 0 0 0 0 1 2 4 5 6 6 6 6 6 7 7 7 7 7 8 7 7 7 7 7 7 8 7 5 5 4 3 3 2 2 3 3
0 0 0 0 0 0 0 0 0 0 0 0 1 2 3 4 5 5 5 4 4 5 5 5 5 6 6 6 6 6 5 5 5 5 5 4 4 3 3 3 2 2 2 2
0 0 0 0 0 0 0 0 0 0 0 0 0 1 2 3 3 4 4 3 3 3 4 4 4 4 3 3 3 3 3 4 4 4 3 3 3 3 3 2 2 2 2 2
0 0 0 0 0 0 0 0 0 0 0 0 0 0 1 2 2 2 3 3 3 3 3 3 3 3 2 1 1 1 2 2 3 3 3 2 2 3 3 2 2 2 2 2
0 0 0 0 0 0 0 0 0 0 0 0 0 0 1 1 1 1 2 3 3 2 2 2 2 2 1 1 1 1 1 1 2 2 2 2 2 3 3 2 2 2 2 2
0 0 0 0 0 0 0 0 0 0 0 0 0 0 1 1 1 1 1 2 2 2 2 2 1 1 1 1 1 1 1 1 1 2 2 2 2 2 2 2 2 2 1 1
0 0 0 0 0 0 0 0 0 0 0 0 0 0 0 1 1 1 1 1 2 1 1 1 1 1 1 1 1 1 0 0 1 1 1 1 1 1 1 1 1 1 1 1
0 0 0 0 0 0 0 0 0 0 0 0 0 0 0 1 1 1 1 1 1 1 0 0 0 0 0 0 0 0 0 0 0 0 0 0 0 0 0 0 1 1 1 1
0 0 0 0 0 0 0 0 0 0 0 0 0 0 0 0 0 0 1 1 0 0 0 0 0 0 0 0 0 0 0 0 0 0 0 0 0 0 0 0 0 0 1 1
0 0 0 0 0 0 0 0 0 0 0 0 0 0 0 0 0 0 1 1 0 0 0 0 0 0 0 0 0 0 0 0 0 0 0 0 0 0 0 0 0 0 0 1
0 0 0 0 0 0 0 0 0 0 0 0 0 0 0 0 0 1 1 0 0 0 0 0 0 0 0 0 0 0 0 0 0 0 0 0 0 0 0 0 0 0 0 0
0 0 0 0 0 0 0 0 0 0 0 0 0 0 0 0 0 0 0 0 0 0 0 0 0 0 0 0 0 0 0 0 0 0 0 0 0 0 0 0 0 0 0 0
0 0 0 0 0 0 0 0 0 0 0 0 0 0 0 0 0 0 0 0 0 0 0 0 0 0 0 0 0 0 0 0 0 0 0 0 0 0 0 0 0 0 0 0
0 0 0 0 0 0 0 0 0 0 0 0 0 0 0 0 0 0 0 0 0 0 0 0 0 0 0 0 0 0 0 0 0 0 0 0 0 0 0 0 0 0 0 0
0 0 0 0 0 0 0 0 0 0 0 0 0 0 0 0 0 0 0 0 0 0 0 0 0 0 0 0 0 0 0 0 0 0 0 0 0 0 0 0 0 0 0 0
0 0 0 0 0 0 0 0 0 0 0 0 0 0 0 0 0 0 0 0 0 0 0 0 0 0 0 0 0 0 0 0 0 0 0 0 0 0 0 0 0 0 0 0
0 0 0 0 0 0 0 0 0 0 0 0 0 0 0 0 0 0 0 0 0 0 0 0 0 0 0 0 0 0 0 0 0 0 0 0 0 0 0 0 0 0 0 0
0 0 0 0 0 0 0 0 0 0 0 0 0 0 0 0 0 0 0 0 0 0 0 0 0 0 0 0 0 0 0 0 0 0 0 0 0 0 0 0 0 0 0 0
0 0 0 0 0 0 0 0 0 0 0 0 0 0 0 0 0 0 0 0 0 0 0 0 0 0 0 0 0 0 0 0 0 0 0 0 0 0 0 0 0 0 0 0
0 0 0 0 0 0 0 0 0 0 0 0 0 0 0 0 0 0 0 0 0 0 0 0 0 0 0 0 0 0 0 0 0 0 0 0 0 0 0 0 0 0 0 0
0 0 0 0 0 0 0 0 0 0 0 0 0 0 0 0 0 0 0 0 0 0 0 0 0 0 0 0 0 0 0 0 0 0 0 0 0 0 0 0 0 0 0 0
0 0 0 0 0 0 0 0 0 0 0 0 0 0 0 0 0 0 0 0 0 0 0 0 0 0 0 0 0 0 0 0 0 0 0 0 0 0 0 0 0 0 0 0
0 0 0 0 0 0 0 0 0 0 0 0 0 0 0 0 0 0 0 0 0 0 0 0 0 0 0 0 0 0 0 0 0 0 0 0 0 0 0 0 0 0 0 0
0 0 0 0 0 0 0 0 0 0 0 0 0 0 0 0 0 0 0 0 0 0 0 0 0 0 0 0 0 0 0 0 0 0 0 0 0 0 0 0 0 0 0 0
0 0 0 0 0 0 0 0 0 0 0 0 0 0 0 0 0 0 0 0 0 0 0 0 0 0 0 0 0 0 0 0 0 0 0 0 0 0 0 0 0 0 0 0
Wind_Speed
2 2 5 10 9 10 6 5 5 6 5 6 7 6 7 8 9 9 9 9 9 8 6 8 7 6 6 4 2 2 3 4 3 2 1 1 1 1 1 2 3 4 4 4
3 5 13 11 8 5 3 2 4 5 6 6 7 9 11 13 11 9 8 8 8 7 8 8 8 7 7 5 4 3 4 2 2 2 2 1 1 1 1 2 2 3 4 4
7 8 6 3 4 3 3 1 2 3 5 7 6 7 9 9 12 13 10 7 7 8 7 7 9 9 8 7 6 5 4 5 4 2 1 2 2 1 1 1 1 2 3 4
2 4 5 5 4 1 2 3 2 3 4 3 4 1 5 7 11 12 10 8 8 8 7 7 8 8 8 7 7 6 4 5 4 3 3 2 1 1 2 2 2 2 2 2
4 4 4 4 4 2 2 1 3 3 2 2 4 4 3 5 7 8 7 7 7 6 7 7 7 7 7 8 8 8 8 8 7 6 6 4 2 2 2 2 2 2 2 3
4 3 2 3 4 2 1 5 7 6 6 3 3 3 2 1 1 3 5 5 5 4 6 6 5 6 6 7 8 7 8 8 7 7 6 5 5 4 3 3 2 2 2 3
6 6 5 1 4 7 5 6 6 7 6 2 1 3 2 1 2 3 2 4 5 3 4 4 4 5 5 5 5 5 6 5 5 5 5 5 4 4 4 4 3 3 3 3
1 5 5 3 0 3 2 6 6 3 4 3 2 1 2 1 1 2 3 3 4 2 2 3 3 3 3 3 3 3 4 3 3 3 3 3 3 3 3 4 3 3 3 3
2 4 5 4 3 1 1 1 5 6 0 1 1 0 1 0 1 2 3 3 2 2 2 2 1 2 2 2 1 1 1 1 2 3 3 3 3 3 3 4 4 3 3 4
3 1 5 4 5 5 2 1 5 5 2 1 1 2 3 4 4 3 2 2 1 1 2 2 2 2 2 2 1 1 1 2 3 3 3 3 3 4 4 4 5 5 5 5
3 2 5 5 3 3 4 4 4 3 4 4 1 3 2 5 5 4 3 3 3 3 3 4 4 3 3 2 2 2 2 3 3 4 4 4 5 5 5 5 6 5 5 5
2 5 2 5 5 1 2 0 3 3 1 2 3 3 1 2 3 3 2 2 2 3 3 3 3 2 2 3 4 4 5 5 6 5 5 6 6 5 6 6 7 6 6 6
3 6 4 9 10 8 6 6 2 4 4 3 3 2 1 1 1 1 0 2 3 4 3 3 3 3 4 5 6 6 6 7 7 6 6 7 7 7 7 8 7 7 7 7
5 5 4 2 5 3 5 9 9 6 4 2 1 1 1 2 2 3 3 4 5 4 4 4 4 5 6 6 7 7 8 8 8 7 7 8 8 8 8 8 8 7 7 7
6 3 2 1 4 9 9 9 9 9 4 3 1 3 1 2 2 3 5 6 5 4 4 5 5 6 7 7 7 8 8 8 8 8 8 9 9 9 8 8 8 7 7 7
5 3 4 4 7 11 12 10 8 7 5 3 4 2 2 2 3 5 6 5 4 5 7 7 7 7 8 8 9 8 9 9 8 8 9 9 8 8 8 8 7 7 7 7
2 3 3 3 2 4 7 6 6 4 4 3 2 2 4 5 6 6 6 5 6 8 8 8 8 9 9 9 9 9 9 9 8 8 9 9 9 8 9 9 7 8 8 7
4 3 2 1 6 4 2 1 4 5 4 3 1 3 4 6 7 6 6 6 8 9 8 9 9 9 9 8 8 8 8 8 8 9 9 9 8 9 8 8 8 8 7 7
4 5 3 3 2 1 1 3 3 1 2 1 2 5 6 6 5 5 7 7 8 9 9 9 9 9 8 9 9 9 8 9 9 9 9 9 9 9 8 8 9 8 7 7
6 6 5 3 2 2 3 4 4 2 2 3 4 6 7 6 6 7 8 8 9 9 8 8 8 9 9 10 9 9 10 10 10 10 10 9 9 8 9 9 9 7 7 8
5 6 5 3 1 2 3 3 4 4 7 6 5 6 6 5 7 9 9 9 8 9 9 9 9 8 9 10 9 9 10 11 11 10 10 9 9 9 9 8 7 7 7 6
3 3 2 2 2 4 4 3 2 5 5 5 5 5 6 8 9 9 9 9 9 9 9 9 8 9 9 9 10 11 11 11 11 10 10 10 9 9 9 7 7 7 6 6
3 6 5 5 5 5 1 2 3 4 3 4 5 6 6 7 8 8 8 9 9 9 9 9 10 11 10 10 10 12 13 12 11 10 11 10 10 8 8 7 7 6 5 5
1 3 4 2 1 2 2 0 1 2 2 4 5 6 6 7 8 9 8 8 9 9 10 10 11 12 12 12 11 12 12 11 11 11 10 9 8 8 7 6 5 5 5 5
3 3 3 1 1 1 3 3 3 3 4 5 6 5 6 7 7 7 8 9 9 9 9 10 11 13 14 13 13 12 12 11 11 11 10 9 7 7 6 6 5 6 6 6
1 5 5 4 5 3 5 4 2 3 5 5 6 7 7 6 7 8 8 8 9 11 11 12 13 13 14 14 14 13 11 10 10 9 8 6 5 5 5 5 5 7 8 9
Wind_Direction
290 116 240 243 217 219 244 271 294 296 320 52 64 58 40 40 60 78 83 86 90 89 75 74 69 62 62 28 16 186 148 152 146 133 168 146 163 233 238 214 181 168 163 156
351 259 245 250 261 252 271 325 330 324 352 49 61 57 51 47 51 61 71 75 86 78 63 66 74 69 71 61 8 53 47 64 91 153 176 152 159 189 219 231 206 189 176 172
221 247 266 280 295 350 355 356 328 331 13 35 66 33 44 42 51 53 53 54 56 67 66 59 61 56 53 51 38 56 40 37 32 32 76 63 47 26 344 285 245 229 199 188
293 310 353 349 322 2 318 305 6 13 40 352 51 35 10 26 43 42 42 44 46 49 60 57 56 54 54 50 47 49 51 50 43 47 56 71 100 237 247 248 243 251 234 217
313 327 348 331 296 326 254 329 39 28 76 34 21 95 321 14 35 31 36 49 52 49 62 61 58 56 49 47 47 42 43 41 36 36 33 28 355 301 299 306 307 277 272 249
285 297 269 262 290 310 33 37 31 39 57 27 325 109 302 349 33 39 37 61 65 56 67 66 59 59 52 50 48 45 45 34 26 31 31 25 0 347 344 330 321 306 295 286
332 324 322 331 358 347 41 64 21 359 5 282 320 96 249 209 123 101 92 84 76 56 72 75 71 64 58 57 55 51 51 37 22 23 21 17 5 360 350 332 329 322 311 300
332 311 306 328 232 254 290 129 150 208 242 268 360 115 255 179 107 94 92 101 102 99 91 84 80 84 78 66 63 66 58 33 6 11 2 355 358 350 336 331 322 312 297 285
190 272 297 311 310 137 323 274 175 144 99 72 285 298 335 106 90 95 103 105 117 142 125 120 113 107 116 119 126 118 87 357 324 323 323 327 332 330 323 321 319 310 301 300
147 279 313 331 19 11 121 138 66 77 88 342 294 230 222 202 197 174 162 148 148 198 176 173 198 199 195 190 198 201 200 246 269 289 294 302 300 297 295 301 304 300 297 298
106 94 324 353 10 325 358 31 78 100 145 148 243 274 271 188 185 181 177 169 195 208 211 218 223 218 216 226 231 245 259 263 267 267 267 277 278 280 284 284 283 283 283 290
59 101 333 299 295 328 40 45 131 133 295 125 142 268 318 160 168 165 173 203 231 244 252 249 245 243 255 262 264 264 264 263 260 257 257 260 263 267 271 270 271 272 275 276
72 83 27 347 344 358 15 6 39 115 91 79 103 287 51 59 56 53 2 308 301 301 301 301 300 288 280 272 265 262 260 257 258 256 255 258 260 259 259 259 262 264 265 268
94 84 132 213 268 327 34 33 36 71 79 68 116 141 36 8 8 351 331 315 308 312 316 314 301 283 276 272 266 263 262 258 257 254 252 254 255 253 254 256 257 258 258 259
80 61 347 340 81 81 68 54 54 66 77 103 121 115 20 339 336 324 318 319 328 331 319 304 289 277 275 275 271 265 262 260 258 256 253 252 252 252 252 253 255 257 255 257
69 62 23 18 92 87 67 43 42 50 47 62 88 83 334 326 335 327 321 323 316 302 295 288 283 279 276 273 269 265 263 260 255 251 251 251 250 250 248 248 249 253 253 254
71 74 49 327 310 70 36 16 37 46 33 77 86 293 307 323 321 306 301 295 288 288 286 283 279 272 271 269 267 266 264 264 261 255 254 251 249 248 246 247 246 243 246 245
128 95 103 11 31 49 229 360 66 97 82 75 95 291 295 290 285 278 277 281 287 289 286 282 279 278 276 275 276 275 276 274 269 265 264 263 260 257 252 250 249 247 243 238
124 123 85 75 66 154 294 1 357 309 203 42 332 311 305 299 313 292 275 279 282 282 282 281 282 283 285 284 283 285 284 279 276 274 271 268 264 261 258 253 251 248 243 242
48 74 85 64 49 247 273 312 312 25 257 288 331 313 305 324 326 287 286 290 288 290 291 290 292 292 291 289 290 291 290 288 283 277 271 269 265 261 259 254 251 249 244 241
22 35 60 64 24 262 299 326 38 57 273 288 293 294 298 290 262 274 293 296 292 294 294 296 298 298 293 294 297 293 292 288 285 284 280 276 270 265 260 255 251 249 248 244
117 94 71 81 25 276 306 35 79 239 254 280 287 289 289 281 282 292 301 302 304 303 301 301 301 299 296 296 296 293 289 285 284 284 282 278 273 271 276 258 254 249 243 245
137 171 173 171 205 228 210 150 207 218 265 283 287 294 294 299 301 305 306 306 305 304 304 303 303 303 302 300 297 294 293 292 289 283 278 275 273 267 263 258 255 254 243 238
271 138 107 106 191 188 150 163 299 294 291 295 300 305 313 310 308 312 311 311 310 306 306 306 308 308 306 303 299 293 295 297 294 289 284 278 272 268 262 256 249 246 243 239
204 115 98 154 264 317 327 319 310 329 334 328 322 317 320 321 317 313 313 312 310 309 309 310 311 309 308 307 303 301 301 300 296 292 287 281 272 265 260 253 248 244 238 232
210 149 152 212 224 205 261 280 329 356 336 327 330 330 327 325 316 316 313 308 309 313 315 315 314 312 311 310 308 306 301 297 298 295 289 281 275 269 259 258 266 254 249 254